CEB822 RPUV-RPLL

Flight info

Callsign CEB822
Flight time 0h 44m
Altitude 28000
Route RPUV/06 DCT NGA W9 AKDAP AKDAP3R RPLL/06
Aircraft A320/M-SDE3FGHIRWY/LB1

Departure

Time 2026-05-08 03:49
Airport Virac Airport (RPUV)

Arrival

Time 2026-05-08 04:33
Airport Ninoy Aquino International Airport (RPLL)
Time Latitude Longitude Altitude Speed Heading
2026-05-08 03:26 13.57944 124.21172 162 ft 0 kts 177°
2026-05-08 03:41 13.57943 124.21171 162 ft 0 kts 199°
2026-05-08 03:41 13.57942 124.21171 162 ft 0 kts 206°
2026-05-08 03:41 13.57937 124.21163 162 ft 2 kts 250°
2026-05-08 03:42 13.57947 124.21143 162 ft 4 kts 316°
2026-05-08 03:42 13.57968 124.21121 162 ft 4 kts 304°
2026-05-08 03:42 13.57987 124.21087 162 ft 5 kts 299°
2026-05-08 03:42 13.58001 124.21045 162 ft 6 kts 263°
2026-05-08 03:43 13.57980 124.20999 162 ft 7 kts 239°
2026-05-08 03:43 13.57951 124.20949 162 ft 8 kts 240°
2026-05-08 03:43 13.57920 124.20892 162 ft 9 kts 240°
2026-05-08 03:43 13.57886 124.20829 162 ft 10 kts 240°
2026-05-08 03:44 13.57843 124.20752 162 ft 13 kts 240°
2026-05-08 03:44 13.57791 124.20657 162 ft 16 kts 240°
2026-05-08 03:44 13.57729 124.20545 162 ft 18 kts 240°
2026-05-08 03:44 13.57661 124.20422 162 ft 20 kts 240°
2026-05-08 03:45 13.57591 124.20293 162 ft 20 kts 240°
2026-05-08 03:45 13.57522 124.20167 162 ft 20 kts 240°
2026-05-08 03:45 13.57453 124.20044 162 ft 19 kts 240°
2026-05-08 03:45 13.57386 124.19921 162 ft 17 kts 240°
2026-05-08 03:46 13.57348 124.19852 162 ft 7 kts 240°
2026-05-08 03:46 13.57330 124.19821 162 ft 4 kts 232°
2026-05-08 03:46 13.57310 124.19809 162 ft 2 kts 205°
2026-05-08 03:46 13.57303 124.19797 162 ft 1 kts 281°
2026-05-08 03:47 13.57318 124.19789 162 ft 2 kts
2026-05-08 03:47 13.57328 124.19803 162 ft 2 kts 88°
2026-05-08 03:47 13.57331 124.19821 162 ft 2 kts 69°
2026-05-08 03:47 13.57334 124.19827 162 ft 0 kts 61°
2026-05-08 03:48 13.57400 124.19946 162 ft 54 kts 60°
2026-05-08 03:48 13.57709 124.20509 162 ft 122 kts 60°
2026-05-08 03:48 13.58191 124.21384 432 ft 149 kts 61°
2026-05-08 03:49 13.58567 124.22370 1032 ft 152 kts 84°
2026-05-08 03:49 13.58320 124.23411 1650 ft 157 kts 119°
2026-05-08 03:49 13.57548 124.24172 2142 ft 162 kts 148°
2026-05-08 03:49 13.56396 124.24493 2361 ft 182 kts 179°
2026-05-08 03:50 13.55113 124.24228 2715 ft 195 kts 200°
2026-05-08 03:50 13.53915 124.23531 3106 ft 205 kts 217°
2026-05-08 03:50 13.52915 124.22481 3572 ft 210 kts 236°
2026-05-08 03:50 13.52192 124.21150 3981 ft 219 kts 248°
2026-05-08 03:51 13.51798 124.19581 4194 ft 238 kts 273°
2026-05-08 03:51 13.51967 124.17828 4619 ft 252 kts 282°
2026-05-08 03:51 13.52244 124.15990 5028 ft 269 kts 281°
2026-05-08 03:51 13.52491 124.14062 5678 ft 276 kts 279°
2026-05-08 03:52 13.52694 124.12102 6434 ft 279 kts 278°
2026-05-08 03:52 13.52867 124.10128 7188 ft 282 kts 277°
2026-05-08 03:52 13.53027 124.08094 7981 ft 284 kts 277°
2026-05-08 03:52 13.53175 124.06086 8840 ft 283 kts 276°
2026-05-08 03:53 13.53314 124.04076 9640 ft 284 kts 276°
2026-05-08 03:53 13.53451 124.02048 10363 ft 288 kts 276°
2026-05-08 03:53 13.53592 123.99970 10792 ft 302 kts 275°
2026-05-08 03:53 13.53740 123.97742 11111 ft 319 kts 275°
2026-05-08 03:54 13.53890 123.95441 11635 ft 327 kts 275°
2026-05-08 03:54 13.54041 123.93127 12341 ft 329 kts 275°
2026-05-08 03:54 13.54195 123.90748 13027 ft 331 kts 274°
2026-05-08 03:54 13.54347 123.88383 13665 ft 335 kts 274°
2026-05-08 03:55 13.54499 123.85994 14289 ft 338 kts 274°
2026-05-08 03:55 13.54653 123.83594 14900 ft 341 kts 274°
2026-05-08 03:55 13.54808 123.81164 15498 ft 344 kts 274°
2026-05-08 03:55 13.54966 123.78692 16083 ft 348 kts 274°
2026-05-08 03:56 13.55124 123.76202 16656 ft 351 kts 273°
2026-05-08 03:56 13.55283 123.73708 17217 ft 354 kts 273°
2026-05-08 03:56 13.55446 123.71147 17773 ft 358 kts 273°
2026-05-08 03:56 13.55608 123.68585 18312 ft 361 kts 273°
2026-05-08 03:57 13.55770 123.66029 18835 ft 365 kts 273°
2026-05-08 03:57 13.55936 123.63401 19358 ft 368 kts 273°
2026-05-08 03:57 13.56100 123.60799 19860 ft 371 kts 273°
2026-05-08 03:57 13.56268 123.58134 20362 ft 374 kts 273°
2026-05-08 03:58 13.56436 123.55464 20852 ft 378 kts 272°
2026-05-08 03:58 13.56607 123.52743 21329 ft 381 kts 272°
2026-05-08 03:58 13.56779 123.50007 21792 ft 384 kts 272°
2026-05-08 03:58 13.56951 123.47262 22245 ft 387 kts 272°
2026-05-08 03:59 13.57123 123.44510 22687 ft 390 kts 272°
2026-05-08 03:59 13.57300 123.41679 23128 ft 394 kts 272°
2026-05-08 03:59 13.57473 123.38911 23564 ft 396 kts 272°
2026-05-08 03:59 13.57649 123.36077 24117 ft 395 kts 272°
2026-05-08 04:00 13.57825 123.33247 24689 ft 394 kts 272°
2026-05-08 04:00 13.58005 123.30450 25224 ft 393 kts 274°
2026-05-08 04:00 13.58423 123.27665 25730 ft 394 kts 282°
2026-05-08 04:00 13.59199 123.25024 26218 ft 395 kts 290°
2026-05-08 04:01 13.60324 123.22411 26680 ft 397 kts 294°
2026-05-08 04:01 13.61549 123.19851 27075 ft 399 kts 295°
2026-05-08 04:01 13.62795 123.17284 27452 ft 402 kts 295°
2026-05-08 04:01 13.64051 123.14689 27817 ft 404 kts 295°
2026-05-08 04:02 13.65291 123.12114 27911 ft 406 kts 295°
2026-05-08 04:02 13.66548 123.09495 27915 ft 406 kts 295°
2026-05-08 04:02 13.67781 123.06918 27917 ft 406 kts 295°
2026-05-08 04:02 13.69048 123.04266 27918 ft 406 kts 295°
2026-05-08 04:03 13.70290 123.01664 27918 ft 406 kts 295°
2026-05-08 04:03 13.72788 122.96426 27918 ft 407 kts 295°
2026-05-08 04:03 13.73894 122.94104 27918 ft 407 kts 295°
2026-05-08 04:04 13.75244 122.91271 27916 ft 407 kts 295°
2026-05-08 04:04 13.76504 122.88625 27900 ft 407 kts 295°
2026-05-08 04:04 13.77745 122.86018 27881 ft 407 kts 295°
2026-05-08 04:04 13.78979 122.83426 27865 ft 407 kts 295°
2026-05-08 04:05 13.80225 122.80806 27854 ft 407 kts 295°
2026-05-08 04:05 13.81482 122.78162 27846 ft 407 kts 295°
2026-05-08 04:05 13.82727 122.75539 27841 ft 407 kts 295°
2026-05-08 04:05 13.83975 122.72913 27838 ft 407 kts 295°
2026-05-08 04:06 13.85209 122.70312 27836 ft 407 kts 295°
2026-05-08 04:06 13.86446 122.67705 27835 ft 407 kts 295°
2026-05-08 04:06 13.87686 122.65092 27834 ft 407 kts 295°
2026-05-08 04:06 13.88929 122.62472 27833 ft 407 kts 295°
2026-05-08 04:07 13.90176 122.59843 27833 ft 407 kts 295°
2026-05-08 04:07 13.91425 122.57207 27833 ft 407 kts 295°
2026-05-08 04:07 13.92674 122.54573 27696 ft 408 kts 295°
2026-05-08 04:07 13.93904 122.51977 27445 ft 405 kts 295°
2026-05-08 04:08 13.95130 122.49390 27195 ft 403 kts 295°
2026-05-08 04:08 13.96362 122.46790 26943 ft 400 kts 295°
2026-05-08 04:08 13.97566 122.44246 26694 ft 397 kts 295°
2026-05-08 04:08 13.98770 122.41701 26445 ft 397 kts 295°
2026-05-08 04:09 13.99976 122.39152 26196 ft 397 kts 294°
2026-05-08 04:09 14.01181 122.36603 25946 ft 397 kts 294°
2026-05-08 04:09 14.02393 122.34038 25696 ft 397 kts 294°
2026-05-08 04:09 14.03604 122.31476 25445 ft 397 kts 294°
2026-05-08 04:10 14.04811 122.28923 25196 ft 397 kts 294°
2026-05-08 04:10 14.06015 122.26374 24947 ft 397 kts 294°
2026-05-08 04:10 14.07227 122.23807 24697 ft 398 kts 294°
2026-05-08 04:10 14.08386 122.21351 24458 ft 398 kts 294°
2026-05-08 04:11 14.09637 122.18700 24199 ft 398 kts 294°
2026-05-08 04:11 14.10849 122.16131 23948 ft 398 kts 294°
2026-05-08 04:11 14.12071 122.13538 23696 ft 398 kts 294°
2026-05-08 04:11 14.13271 122.10993 23448 ft 398 kts 294°
2026-05-08 04:12 14.14508 122.08367 23192 ft 398 kts 294°
2026-05-08 04:12 14.15734 122.05766 22938 ft 397 kts 294°
2026-05-08 04:12 14.16972 122.03139 22681 ft 395 kts 294°
2026-05-08 04:12 14.18123 122.00694 22443 ft 393 kts 294°
2026-05-08 04:13 14.19276 121.98246 22124 ft 385 kts 294°
2026-05-08 04:13 14.20446 121.95760 21766 ft 376 kts 294°
2026-05-08 04:13 14.21568 121.93374 21424 ft 369 kts 294°
2026-05-08 04:13 14.22523 121.90949 21066 ft 359 kts 281°
2026-05-08 04:14 14.22770 121.88414 20737 ft 350 kts 271°
2026-05-08 04:14 14.22852 121.85935 20407 ft 343 kts 270°
2026-05-08 04:14 14.22930 121.83505 20075 ft 337 kts 271°
2026-05-08 04:14 14.23021 121.81099 19820 ft 330 kts 271°
2026-05-08 04:15 14.23120 121.78771 19577 ft 328 kts 271°
2026-05-08 04:15 14.23190 121.77203 19422 ft 327 kts 271°
2026-05-08 04:15 14.23337 121.74095 19122 ft 326 kts 272°
2026-05-08 04:15 14.23452 121.71735 18822 ft 324 kts 272°
2026-05-08 04:16 14.23567 121.69416 18480 ft 322 kts 272°
2026-05-08 04:16 14.23682 121.67120 18125 ft 320 kts 272°
2026-05-08 04:16 14.23797 121.64816 17756 ft 318 kts 272°
2026-05-08 04:16 14.23852 121.63724 17581 ft 317 kts 272°
2026-05-08 04:17 14.23943 121.61906 17294 ft 316 kts 272°
2026-05-08 04:17 14.24058 121.59610 16940 ft 313 kts 272°
2026-05-08 04:17 14.24171 121.57370 16586 ft 311 kts 272°
2026-05-08 04:17 14.24282 121.55162 16230 ft 309 kts 273°
2026-05-08 04:18 14.24393 121.52933 15868 ft 307 kts 273°
2026-05-08 04:18 14.24502 121.50764 15509 ft 305 kts 273°
2026-05-08 04:18 14.24611 121.48585 15146 ft 303 kts 273°
2026-05-08 04:18 14.24718 121.46420 14781 ft 301 kts 273°
2026-05-08 04:19 14.24826 121.44247 14412 ft 299 kts 274°
2026-05-08 04:19 14.24932 121.42127 14049 ft 297 kts 274°
2026-05-08 04:19 14.25037 121.40002 13684 ft 295 kts 274°
2026-05-08 04:19 14.25141 121.37910 13322 ft 293 kts 274°
2026-05-08 04:20 14.25246 121.35783 12951 ft 291 kts 274°
2026-05-08 04:20 14.25347 121.33740 12594 ft 290 kts 274°
2026-05-08 04:20 14.25449 121.31665 12233 ft 288 kts 274°
2026-05-08 04:20 14.25550 121.29602 11871 ft 286 kts 274°
2026-05-08 04:21 14.25653 121.27557 11515 ft 283 kts 274°
2026-05-08 04:21 14.25756 121.25528 11162 ft 281 kts 273°
2026-05-08 04:21 14.25855 121.23526 10808 ft 279 kts 273°
2026-05-08 04:21 14.25953 121.21544 10455 ft 277 kts 273°
2026-05-08 04:22 14.26050 121.19565 10096 ft 275 kts 273°
2026-05-08 04:22 14.26148 121.17580 9734 ft 274 kts 272°
2026-05-08 04:22 14.26244 121.15621 9362 ft 272 kts 272°
2026-05-08 04:22 14.26340 121.13678 8989 ft 271 kts 271°
2026-05-08 04:23 14.26434 121.11745 8621 ft 270 kts 271°
2026-05-08 04:23 14.26531 121.09815 8241 ft 270 kts 271°
2026-05-08 04:23 14.26620 121.07892 7866 ft 269 kts 271°
2026-05-08 04:23 14.26716 121.05964 7516 ft 268 kts 270°
2026-05-08 04:24 14.26807 121.04059 7138 ft 268 kts 270°
2026-05-08 04:24 14.26894 121.02146 6786 ft 267 kts 271°
2026-05-08 04:24 14.26984 121.00228 6457 ft 265 kts 271°
2026-05-08 04:24 14.27076 120.98332 6128 ft 263 kts 270°
2026-05-08 04:25 14.27167 120.96471 5778 ft 262 kts 271°
2026-05-08 04:25 14.27253 120.94602 5589 ft 249 kts 271°
2026-05-08 04:25 14.27339 120.92866 5474 ft 237 kts 270°
2026-05-08 04:25 14.27419 120.91197 5393 ft 229 kts 270°
2026-05-08 04:26 14.27535 120.89565 5300 ft 230 kts 281°
2026-05-08 04:26 14.28287 120.88106 5114 ft 239 kts 316°
2026-05-08 04:26 14.29693 120.87160 4866 ft 240 kts 329°
2026-05-08 04:26 14.31161 120.86359 4602 ft 238 kts 329°
2026-05-08 04:27 14.32636 120.85538 4282 ft 238 kts 329°
2026-05-08 04:27 14.34081 120.84721 3994 ft 237 kts 329°
2026-05-08 04:27 14.35530 120.83886 3708 ft 237 kts 329°
2026-05-08 04:27 14.36952 120.83061 3439 ft 237 kts 329°
2026-05-08 04:28 14.38520 120.82547 3131 ft 234 kts
2026-05-08 04:28 14.40035 120.82970 2995 ft 220 kts 38°
2026-05-08 04:28 14.41038 120.84071 3003 ft 208 kts 60°
2026-05-08 04:28 14.41752 120.85367 3004 ft 207 kts 66°
2026-05-08 04:29 14.42400 120.86654 3057 ft 196 kts 65°
2026-05-08 04:29 14.43029 120.87856 2809 ft 185 kts 64°
2026-05-08 04:29 14.43649 120.88990 2552 ft 174 kts 64°
2026-05-08 04:29 14.44234 120.90039 2294 ft 163 kts 64°
2026-05-08 04:30 14.44784 120.91017 2046 ft 151 kts 64°
2026-05-08 04:30 14.45288 120.91916 1823 ft 141 kts 64°
2026-05-08 04:30 14.45773 120.92791 1665 ft 139 kts 63°
2026-05-08 04:30 14.46252 120.93653 1498 ft 138 kts 63°
2026-05-08 04:31 14.46740 120.94531 1289 ft 144 kts 64°
2026-05-08 04:31 14.47232 120.95414 1138 ft 144 kts 64°
2026-05-08 04:31 14.47719 120.96287 940 ft 140 kts 64°
2026-05-08 04:31 14.48207 120.97169 770 ft 139 kts 62°
2026-05-08 04:32 14.48695 120.98045 554 ft 141 kts 64°
2026-05-08 04:32 14.49180 120.98917 358 ft 138 kts 64°
2026-05-08 04:32 14.49662 120.99785 164 ft 144 kts 63°
2026-05-08 04:32 14.50141 121.00645 88 ft 129 kts 63°
2026-05-08 04:33 14.50508 121.01318 84 ft 83 kts 60°
2026-05-08 04:33 14.50723 121.01675 84 ft 33 kts 47°
2026-05-08 04:33 14.50826 121.01766 84 ft 5 kts 37°
2026-05-08 04:33 14.50840 121.01778 84 ft 0 kts 37°
2026-05-08 04:34 14.50844 121.01780 84 ft 1 kts 37°
2026-05-08 04:34 14.50853 121.01787 84 ft 2 kts 26°
2026-05-08 04:34 14.50871 121.01790 84 ft 3 kts 359°
2026-05-08 04:34 14.50904 121.01781 84 ft 6 kts 354°
2026-05-08 04:35 14.50943 121.01809 84 ft 7 kts 60°
2026-05-08 04:35 14.50970 121.01862 84 ft 7 kts 61°
2026-05-08 04:35 14.50997 121.01913 84 ft 8 kts 62°
2026-05-08 04:35 14.51028 121.01970 84 ft 9 kts 61°
2026-05-08 04:36 14.51079 121.01978 84 ft 7 kts 315°
2026-05-08 04:36 14.51119 121.01938 84 ft 9 kts 315°
2026-05-08 04:36 14.51172 121.01884 84 ft 12 kts 315°
2026-05-08 04:36 14.51236 121.01817 84 ft 13 kts 315°
2026-05-08 04:37 14.51303 121.01748 84 ft 14 kts 315°
2026-05-08 04:37 14.51381 121.01667 84 ft 17 kts 315°
2026-05-08 04:37 14.51472 121.01573 84 ft 19 kts 315°
2026-05-08 04:37 14.51573 121.01469 84 ft 21 kts 315°
2026-05-08 04:38 14.51680 121.01358 84 ft 22 kts 315°
2026-05-08 04:38 14.51788 121.01247 84 ft 21 kts 315°
2026-05-08 04:38 14.51895 121.01136 84 ft 21 kts 315°
2026-05-08 04:38 14.51998 121.01028 84 ft 17 kts 314°
2026-05-08 04:39 14.52051 121.00975 84 ft 4 kts 315°
2026-05-08 04:39 14.52072 121.00972 84 ft 4 kts 30°
2026-05-08 04:39 14.52095 121.00996 84 ft 5 kts 46°
2026-05-08 04:39 14.52122 121.01024 84 ft 6 kts 45°
2026-05-08 04:40 14.52143 121.01045 84 ft 1 kts 44°
2026-05-08 04:40 14.52145 121.01047 84 ft 0 kts 44°